Location: Unspecified
(0.0000°N, 0.0000°E)
Time: 13:43:21
(UTC+00:00)

Vanguard 3 - Pass Details

Date: 11 December 2025
Orbit: 507 x 3207 km, 33.3° (Epoch: 22 January)

Event Time Altitude Azimuth Distance (km) Brightness Sun altitude
Rises 10:24:01 0° 244° (WSW) 7,050 11.8 58.3°
Reaches altitude 10° 10:29:16 10° 248° (WSW) 5,835 11.5 59.2°
Maximum altitude 10:45:31 53° 320° (NW) 2,552 10.1 61.7°
Drops below altitude 10° 10:55:21 10° 35° (NE) 3,647 10.5 63.0°
Sets 10:57:53 0° 40° (NE) 4,325 10.8 63.3°
